Location: Franzen
(48.6167°N, 15.3833°E)
Time: 13:24:46
(UTC+00:00)

Meteor 2-15 - Pass Details

Date: 22 April 2021
Orbit: 936 x 955 km, 82.5° (Epoch: 16 May)

Event Time Altitude Azimuth Distance (km) Brightness Sun altitude
Exits shadow 20:29:12 31° 177° (S) 1,569 5.1 -20.7°
Maximum altitude 20:32:13 77° 97° (E) 967 4.3 -21.0°
Drops below altitude 10° 20:38:17 10° 13° (NNE) 2,661 7.3 -21.6°
Sets 20:40:47 0° 12° (NNE) 3,610 8.1 -21.9°
